Location: Newark
(45.2500°N, 7.5833°E)
Time: 10:17:56
(UTC+00:00)

A-11 Canister half - Pass Details

Date: 30 January 2020
Orbit: 1524 x 1684 km, 47.3° (Epoch: 22 February)

Event Time Altitude Azimuth Distance (km) Brightness Sun altitude
Rises 22:44:14 0° 293° (WNW) 4,752 11.9 -59.8°
Enters shadow 22:47:18 - 285° (WNW) 3,884 11.3 -60.0°
Reaches altitude 10° 22:47:40 10° 284° (WNW) 3,788 - -60.0°
Maximum altitude 22:55:49 33° 226° (SW) 2,487 - -60.7°
Drops below altitude 10° 23:04:12 10° 167° (SSE) 3,883 - -61.2°
Sets 23:07:48 0° 158° (SSE) 4,886 - -61.4°
